AirNav   Phillips 66 Aviation Fuel
 
 387 users online  

3AZ6 Banner Del E Webb Medical Center Heliport
Sun City West, Arizona, USA

GOING TO SUN CITY WEST?


FAA INFORMATION EFFECTIVE 12 OCTOBER 2017

Location

FAA Identifier: 3AZ6
Lat/Long: 33-39-33.6600N / 112-22-24.5400W
33-39.561000N / 112-22.409000W
33.6593500 / -112.3734833
(estimated)
Elevation: 1255 ft. / 383 m (estimated)
Variation: 13E (1985)
Time zone: UTC -7 (year round; does not observe DST)
Zip code: 85375

Heliport Operations

Heliport use: Private use, MEDICAL USE
Activation date: 04/1988
Control tower: no
ARTCC: ALBUQUERQUE CENTER
FSS: PRESCOTT FLIGHT SERVICE STATION
Attendance: UNATNDD
Wind indicator: yes
Segmented circle: no

Heliport Communications

WX AWOS-3 at GEU (9 nm SE): 119.425 (623-877-8609)
WX ASOS at DVT (15 nm E): PHONE 623-587-7764

Nearby radio navigation aids

VOR radial/distance  VOR name  Freq  Var
PXRr292/24.3PHOENIX VORTAC115.6012E
BXKr047/25.7BUCKEYE VORTAC110.6014E

 
NDB name  Hdg/Dist  Freq  Var  ID
CHANDLER298/36.840712ECHD -.-. .... -..

Heliport Services

Runway Information

Helipad H1

Dimensions: 50 x 50 ft. / 15 x 15 m
Surface: concrete
Runway edge lights: PERIMETER LGTS
Latitude: 33-39.561000N
Longitude: 112-22.409000W
Elevation: 1255.0 ft.
Traffic pattern: leftleft

Heliport Ownership and Management from official FAA records

Ownership: Privately-owned
Owner: BANNER DEL E. WEBB MEDICAL CENTER
14502 W MEEKER BLVD
SUN CITY WEST, AZ 85375
Phone (623) 524-4089
Manager: CHRIS CARLTON
14502 W MEEKER BLVD
SUN CITY WEST, AZ 85375
Phone (623) 524-4433

Instrument Procedures

There are no published instrument procedures at 3AZ6.

Some nearby airports with instrument procedures:

KLUF - Luke Air Force Base (7 nm S)
KGEU - Glendale Municipal Airport (9 nm SE)
KGYR - Phoenix Goodyear Airport (14 nm S)
KDVT - Phoenix Deer Valley Airport (15 nm E)
KPHX - Phoenix Sky Harbor International Airport (23 nm SE)
 
Loc | Ops | Rwys | IFR | FBO | Links
Com | Nav | Svcs | Stats | Notes


 
Area around 3AZ6 (Banner Del E Webb Medical Center Heliport)
 
Road maps at: MapQuest Bing Google
 
Aerial photo
No photo
 
Sectional chart

 
Airport distance calculator
Flying to Banner Del E Webb Medical Center Heliport? Find the distance to fly.

From to 3AZ6

Sunrise and sunset
Times for 23-Oct-2017
 Local
(UTC-7)
 Zulu
(UTC)
Morning civil twilight06:1713:17
Sunrise06:4213:42
Sunset17:4600:46
Evening civil twilight18:1101:11

Current date and time
Zulu (UTC)  24-Oct-2017 06:41:30
Local (UTC-7)  23-Oct-2017 23:41:30
 
METAR
KGEU 
8nm SE 
240247Z 00000KT 10SM SKC 27/00 A3004 RMK LAST
KLUF 
9nm S 
240558Z AUTO 33003KT 10SM CLR 22/03 A3004 RMK AO2 SLP162 T02180030 10340 20218 52010 $
KGYR 
15nm S 
240347Z VRB04KT 10SM SKC 24/M01 A3003 RMK LAST
KDVT 
15nm E 
240553Z AUTO VRB03KT 10SM CLR 25/M05 A3007 RMK AO2 SLP160 T02501050 10339 20228 51007
TAF
KLUF 
9nm S 
232001Z 2320/2502 VRB06KT 9999 SKC QNH2999INS BECMG 2408/2409 07012KT 9999 SKC QNH3006INS BECMG 2417/2418 08012G18KT 9999 FEW200 QNH3003INS TEMPO 2418/2421 08020G25KT 510006 TX34/2322Z TN16/2414Z
NOTAMs
Click for the latest NOTAMs
NOTAMs are issued by the DoD/FAA and will open in a separate window not controlled by AirNav.

 

 
 

Would you like to see your business listed on this page?

 If your business provides an interesting product or service to pilots, flight crews, aircraft, or users of the Banner Del E Webb Medical Center Heliport, you should consider listing it here.  To start the listing process, click on the button below
 
Add a business
 

Other Pages about Banner Del E Webb Medical Center Heliport

Update a link
 
Copyright © AirNav, LLC. All rights reserved. Privacy Policy  Contact